| time (UTC) | temp F | wind direction | speed MPH | gust MPH | rain 1hr in | rain 24hr in | rain mn in | humidity % | barometer mb |
| 20260831033726 | 85 | 190 | 9.0 | 13.0 | 0.00 | 0.00 | 0.00 | 61 | |
| 20260831033226 | 86 | 144 | 8.0 | 14.0 | 0.00 | 0.00 | 0.00 | 61 | |
| 20260831032721 | 86 | 158 | 8.0 | 13.0 | 0.00 | 0.00 | 0.00 | 60 | |
| 20260831032216 | 86 | 135 | 9.0 | 13.0 | 0.00 | 0.00 | 0.00 | 60 | |
| 20260831031716 | 86 | 139 | 7.0 | 10.0 | 0.00 | 0.00 | 0.00 | 60 | |
| 20260831031211 | 86 | 103 | 2.0 | 8.0 | 0.00 | 0.00 | 0.00 | 60 | |
| 20260831030710 | 86 | 116 | 5.0 | 11.0 | 0.00 | 0.00 | 0.00 | 60 | |
| 20260831030209 | 86 | 129 | 5.0 | 9.0 | 0.00 | 0.00 | 0.00 | 60 | |
| 20260831025708 | 86 | 131 | 4.0 | 7.0 | 0.00 | 0.00 | 0.00 | 59 | |
| 20260831025203 | 86 | 172 | 6.0 | 10.0 | 0.00 | 0.00 | 0.00 | 59 | |
| 20260831024659 | 87 | 148 | 5.0 | 7.0 | 0.00 | 0.00 | 0.00 | 58 | |
| 20260831024157 | 87 | 132 | 6.0 | 7.0 | 0.00 | 0.00 | 0.00 | 58 | |
| 20260831023656 | 87 | 156 | 6.0 | 8.0 | 0.00 | 0.00 | 0.00 | 57 | |
| 20260831023155 | 87 | 126 | 5.0 | 7.0 | 0.00 | 0.00 | 0.00 | 57 | |
| 20260831022650 | 87 | 161 | 3.0 | 5.0 | 0.00 | 0.00 | 0.00 | 57 | |
| 20260831022140 | 88 | 159 | 5.0 | 7.0 | 0.00 | 0.00 | 0.00 | 56 | |
| 20260831021639 | 88 | 143 | 7.0 | 8.0 | 0.00 | 0.00 | 0.00 | 56 | |
| 20260831021134 | 88 | 147 | 5.0 | 8.0 | 0.00 | 0.00 | 0.00 | 55 | |
| 20260831020630 | 88 | 133 | 4.0 | 6.0 | 0.00 | 0.00 | 0.00 | 54 | |
| 20260831020125 | 89 | 162 | 3.0 | 7.0 | 0.00 | 0.00 | 0.00 | 54 | |
| 20260831015621 | 89 | 168 | 4.0 | 7.0 | 0.00 | 0.00 | 0.00 | 53 | |
| 20260831015120 | 89 | 129 | 8.0 | 11.0 | 0.00 | 0.00 | 0.00 | 52 | |
| 20260831014615 | 89 | 124 | 9.0 | 13.0 | 0.00 | 0.00 | 0.00 | 51 | |
| 20260831014110 | 89 | 145 | 6.0 | 9.0 | 0.00 | 0.00 | 0.00 | 49 | |
| 20260831013606 | 90 | 137 | 5.0 | 6.0 | 0.00 | 0.00 | 0.00 | 49 | |
| 20260831013101 | 90 | 127 | 4.0 | 6.0 | 0.00 | 0.00 | 0.00 | 49 | |
| 20260831012600 | 90 | 127 | 3.0 | 5.0 | 0.00 | 0.00 | 0.00 | 49 | |
| 20260831012055 | 90 | 141 | 5.0 | 6.0 | 0.00 | 0.00 | 0.00 | 48 | |
| 20260831011554 | 91 | 134 | 4.0 | 6.0 | 0.00 | 0.00 | 0.00 | 48 | |
| 20260831011050 | 91 | 125 | 5.0 | 6.0 | 0.00 | 0.00 | 0.00 | 48 | |
| 20260831010545 | 91 | 121 | 3.0 | 5.0 | 0.00 | 0.00 | 0.00 | 47 | |
| 20260831010042 | 91 | 133 | 4.0 | 6.0 | 0.00 | 0.00 | 0.00 | 47 | |
| 20260831005537 | 92 | 120 | 4.0 | 7.0 | 0.00 | 0.00 | 0.00 | 46 | |
| 20260831005036 | 92 | 153 | 6.0 | 7.0 | 0.00 | 0.00 | 0.00 | 45 | |
| 20260831004532 | 93 | 147 | 7.0 | 8.0 | 0.00 | 0.00 | 0.00 | 45 | |
| 20260831004028 | 93 | 132 | 3.0 | 5.0 | 0.00 | 0.00 | 0.00 | 44 | |
| 20260831003524 | 93 | 157 | 4.0 | 7.0 | 0.00 | 0.00 | 0.00 | 44 | |
| 20260831003019 | 93 | 110 | 5.0 | 8.0 | 0.00 | 0.00 | 0.00 | 43 | |
| 20260831002518 | 94 | 116 | 4.0 | 7.0 | 0.00 | 0.00 | 0.00 | 43 | |
| 20260831002013 | 94 | 161 | 5.0 | 6.0 | 0.00 | 0.00 | 0.00 | 42 | |
| 20260831001508 | 94 | 148 | 5.0 | 10.0 | 0.00 | 0.00 | 0.00 | 42 | |
| 20260831000959 | 94 | 166 | 3.0 | 6.0 | 0.00 | 0.00 | 0.00 | 42 | |
| 20260831000455 | 94 | 138 | 8.0 | 9.0 | 0.00 | 0.00 | 0.00 | 42 | |
| 20260830235953 | 94 | 171 | 6.0 | 8.0 | 0.00 | 0.00 | 0.00 | 41 | |
| 20260830235448 | 94 | 131 | 5.0 | 8.0 | 0.00 | 0.00 | 0.00 | 41 | |
| 20260830234943 | 95 | 120 | 9.0 | 13.0 | 0.00 | 0.00 | 0.00 | 41 | |
| 20260830234438 | 95 | 96 | 7.0 | 9.0 | 0.00 | 0.00 | 0.00 | 41 | |
| 20260830233934 | 94 | 169 | 5.0 | 8.0 | 0.00 | 0.00 | 0.00 | 42 | |
| 20260830233429 | 95 | 126 | 5.0 | 13.0 | 0.00 | 0.00 | 0.00 | 42 | |
| 20260830232925 | 95 | 127 | 7.0 | 10.0 | 0.00 | 0.00 | 0.00 | 41 | |
| 20260830232421 | 95 | 137 | 6.0 | 9.0 | 0.00 | 0.00 | 0.00 | 41 | |
| 20260830231917 | 95 | 108 | 3.0 | 6.0 | 0.00 | 0.00 | 0.00 | 41 | |
| 20260830231412 | 95 | 131 | 8.0 | 8.0 | 0.00 | 0.00 | 0.00 | 40 | |
| 20260830230912 | 95 | 128 | 4.0 | 8.0 | 0.00 | 0.00 | 0.00 | 41 | |
| 20260830230407 | 95 | 122 | 7.0 | 15.0 | 0.00 | 0.00 | 0.00 | 41 | |
| 20260830225906 | 95 | 90 | 7.0 | 9.0 | 0.00 | 0.00 | 0.00 | 42 | |
| 20260830225402 | 95 | 122 | 3.0 | 6.0 | 0.00 | 0.00 | 0.00 | 40 | |
| 20260830224856 | 95 | 188 | 8.0 | 9.0 | 0.00 | 0.00 | 0.00 | 40 | |
| 20260830224355 | 95 | 141 | 3.0 | 10.0 | 0.00 | 0.00 | 0.00 | 41 | |
| 20260830223852 | 95 | 199 | 8.0 | 11.0 | 0.00 | 0.00 | 0.00 | 41 | |
| 20260830223348 | 95 | 137 | 9.0 | 10.0 | 0.00 | 0.00 | 0.00 | 41 | |
| 20260830222847 | 95 | 214 | 3.0 | 11.0 | 0.00 | 0.00 | 0.00 | 42 | |
| 20260830222343 | 95 | 161 | 4.0 | 14.0 | 0.00 | 0.00 | 0.00 | 43 | |
| 20260830221838 | 95 | 160 | 7.0 | 9.0 | 0.00 | 0.00 | 0.00 | 42 | |
| 20260830221335 | 95 | 127 | 5.0 | 8.0 | 0.00 | 0.00 | 0.00 | 43 | |
| 20260830220830 | 95 | 138 | 9.0 | 10.0 | 0.00 | 0.00 | 0.00 | 43 | |
| 20260830220329 | 94 | 149 | 5.0 | 8.0 | 0.00 | 0.00 | 0.00 | 44 | |
| 20260830215827 | 94 | 179 | 5.0 | 13.0 | 0.00 | 0.00 | 0.00 | 43 | |
| 20260830215322 | 94 | 161 | 5.0 | 9.0 | 0.00 | 0.00 | 0.00 | 41 | |
| 20260830214817 | 93 | 136 | 9.0 | 11.0 | 0.00 | 0.00 | 0.00 | 45 | |
| 20260830214312 | 95 | 113 | 8.0 | 11.0 | 0.00 | 0.00 | 0.00 | 44 | |
| 20260830213812 | 95 | 124 | 6.0 | 10.0 | 0.00 | 0.00 | 0.00 | 45 | |
| 20260830213307 | 94 | 176 | 7.0 | 8.0 | 0.00 | 0.00 | 0.00 | 45 | |
| 20260830212803 | 94 | 166 | 9.0 | 10.0 | 0.00 | 0.00 | 0.00 | 44 | |
| 20260830212259 | 94 | 154 | 9.0 | 13.0 | 0.00 | 0.00 | 0.00 | 45 | |
| 20260830211758 | 94 | 137 | 7.0 | 9.0 | 0.00 | 0.00 | 0.00 | 45 | |
| 20260830211257 | 94 | 104 | 3.0 | 13.0 | 0.00 | 0.00 | 0.00 | 46 | |
| 20260830210753 | 94 | 124 | 6.0 | 10.0 | 0.00 | 0.00 | 0.00 | 47 | |
| 20260830210252 | 93 | 87 | 6.0 | 11.0 | 0.00 | 0.00 | 0.00 | 48 | |
| 20260830205750 | 93 | 153 | 9.0 | 10.0 | 0.00 | 0.00 | 0.00 | 48 | |
| 20260830205244 | 94 | 96 | 7.0 | 11.0 | 0.00 | 0.00 | 0.00 | 48 | |
| 20260830204740 | 95 | 137 | 6.0 | 7.0 | 0.00 | 0.00 | 0.00 | 44 | |
| 20260830204239 | 95 | 135 | 3.0 | 9.0 | 0.00 | 0.00 | 0.00 | 48 | |
| 20260830203735 | 94 | 129 | 3.0 | 10.0 | 0.00 | 0.00 | 0.00 | 46 | |
| 20260830203230 | 93 | 119 | 5.0 | 10.0 | 0.00 | 0.00 | 0.00 | 48 | |
| 20260830202730 | 93 | 123 | 3.0 | 6.0 | 0.00 | 0.00 | 0.00 | 48 | |
| 20260830202226 | 93 | 104 | 5.0 | 11.0 | 0.00 | 0.00 | 0.00 | 50 | |
| 20260830201725 | 94 | 138 | 10.0 | 15.0 | 0.00 | 0.00 | 0.00 | 47 | |
| 20260830201220 | 94 | 149 | 8.0 | 14.0 | 0.00 | 0.00 | 0.00 | 46 | |
| 20260830200716 | 94 | 117 | 6.0 | 11.0 | 0.00 | 0.00 | 0.00 | 46 | |
| 20260830200215 | 94 | 190 | 7.0 | 11.0 | 0.00 | 0.00 | 0.00 | 47 | |
| 20260830195710 | 93 | 156 | 4.0 | 8.0 | 0.00 | 0.00 | 0.00 | 48 | |
| 20260830195209 | 93 | 144 | 10.0 | 13.0 | 0.00 | 0.00 | 0.00 | 47 | |
| 20260830194707 | 92 | 109 | 0.0 | 3.0 | 0.00 | 0.00 | 0.00 | 50 | |
| 20260830194202 | 92 | 181 | 8.0 | 13.0 | 0.00 | 0.00 | 0.00 | 50 | |
| 20260830193656 | 92 | 101 | 12.0 | 15.0 | 0.00 | 0.00 | 0.00 | 50 | |
| 20260830193156 | 91 | 164 | 4.0 | 8.0 | 0.00 | 0.00 | 0.00 | 50 | |
| 20260830192652 | 91 | 146 | 7.0 | 14.0 | 0.00 | 0.00 | 0.00 | 51 | |
| 20260830192147 | 93 | 138 | 7.0 | 10.0 | 0.00 | 0.00 | 0.00 | 49 | |
| 20260830191643 | 93 | 130 | 5.0 | 10.0 | 0.00 | 0.00 | 0.00 | 50 | |
| 20260830191137 | 92 | 133 | 8.0 | 13.0 | 0.00 | 0.00 | 0.00 | 51 | |
| 20260830190633 | 92 | 223 | 3.0 | 10.0 | 0.00 | 0.00 | 0.00 | 50 | |
| 20260830190127 | 93 | 166 | 7.0 | 14.0 | 0.00 | 0.00 | 0.00 | 49 | |
| 20260830185621 | 92 | 87 | 6.0 | 10.0 | 0.00 | 0.00 | 0.00 | 52 | |
| 20260830185117 | 92 | 172 | 9.0 | 13.0 | 0.00 | 0.00 | 0.00 | 51 | |
| 20260830184615 | 92 | 123 | 4.0 | 10.0 | 0.00 | 0.00 | 0.00 | 51 | |
| 20260830184116 | 91 | 160 | 5.0 | 11.0 | 0.00 | 0.00 | 0.00 | 52 | |
| 20260830183611 | 91 | 202 | 4.0 | 10.0 | 0.00 | 0.00 | 0.00 | 53 | |
| 20260830183107 | 91 | 129 | 7.0 | 14.0 | 0.00 | 0.00 | 0.00 | 52 | |
| 20260830182602 | 91 | 152 | 12.0 | 17.0 | 0.00 | 0.00 | 0.00 | 52 | |
| 20260830182058 | 91 | 130 | 6.0 | 10.0 | 0.00 | 0.00 | 0.00 | 52 | |
| 20260830181554 | 91 | 192 | 5.0 | 8.0 | 0.00 | 0.00 | 0.00 | 52 | |
| 20260830181053 | 91 | 119 | 13.0 | 15.0 | 0.00 | 0.00 | 0.00 | 53 | |
| 20260830180552 | 91 | 116 | 7.0 | 14.0 | 0.00 | 0.00 | 0.00 | 52 | |
| 20260830180052 | 90 | 97 | 2.0 | 7.0 | 0.00 | 0.00 | 0.00 | 54 | |
| 20260830175551 | 90 | 141 | 5.0 | 11.0 | 0.00 | 0.00 | 0.00 | 53 | |
| 20260830175046 | 90 | 176 | 5.0 | 6.0 | 0.00 | 0.00 | 0.00 | 54 | |
| 20260830174542 | 91 | 163 | 9.0 | 13.0 | 0.00 | 0.00 | 0.00 | 54 | |
| 20260830174037 | 90 | 62 | 3.0 | 7.0 | 0.00 | 0.00 | 0.00 | 53 | |
| 20260830173532 | 90 | 152 | 11.0 | 14.0 | 0.00 | 0.00 | 0.00 | 54 | |
| 20260830173027 | 89 | 207 | 3.0 | 6.0 | 0.00 | 0.00 | 0.00 | 55 | |
| 20260830172524 | 90 | 165 | 8.0 | 9.0 | 0.00 | 0.00 | 0.00 | 54 | |
| 20260830172020 | 90 | 192 | 7.0 | 9.0 | 0.00 | 0.00 | 0.00 | 53 | |
| 20260830171520 | 89 | 70 | 1.0 | 2.0 | 0.00 | 0.00 | 0.00 | 55 | |
| 20260830171020 | 89 | 160 | 9.0 | 10.0 | 0.00 | 0.00 | 0.00 | 56 | |
| 20260830170515 | 89 | 133 | 1.0 | 5.0 | 0.00 | 0.00 | 0.00 | 56 | |
| 20260830170014 | 89 | 187 | 4.0 | 8.0 | 0.00 | 0.00 | 0.00 | 56 | |
| 20260830165509 | 89 | 87 | 3.0 | 7.0 | 0.00 | 0.00 | 0.00 | 57 | |
| 20260830165005 | 89 | 174 | 5.0 | 6.0 | 0.00 | 0.00 | 0.00 | 57 | |
| 20260830164501 | 89 | 117 | 4.0 | 8.0 | 0.00 | 0.00 | 0.00 | 57 | |
| 20260830163957 | 87 | 141 | 4.0 | 7.0 | 0.00 | 0.00 | 0.00 | 58 | |
| 20260830163454 | 88 | 196 | 6.0 | 10.0 | 0.00 | 0.00 | 0.00 | 60 | |
| 20260830162952 | 88 | 221 | 7.0 | 11.0 | 0.00 | 0.00 | 0.00 | 61 | |
| 20260830162449 | 87 | 236 | 5.0 | 7.0 | 0.00 | 0.00 | 0.00 | 60 | |
| 20260830161948 | 87 | 176 | 5.0 | 8.0 | 0.00 | 0.00 | 0.00 | 61 | |
| 20260830161443 | 86 | 188 | 7.0 | 10.0 | 0.00 | 0.00 | 0.00 | 62 | |
| 20260830160938 | 87 | 207 | 8.0 | 9.0 | 0.00 | 0.00 | 0.00 | 62 | |
| 20260830160435 | 87 | 171 | 5.0 | 9.0 | 0.00 | 0.00 | 0.00 | 62 | |
| 20260830155929 | 86 | 217 | 7.0 | 10.0 | 0.00 | 0.00 | 0.00 | 62 | |
| 20260830155426 | 86 | 195 | 5.0 | 11.0 | 0.00 | 0.00 | 0.00 | 63 | |
| 20260830154920 | 86 | 234 | 6.0 | 9.0 | 0.00 | 0.00 | 0.00 | 65 | |
| 20260830154416 | 85 | 121 | 4.0 | 6.0 | 0.00 | 0.00 | 0.00 | 65 | |
| 20260830153913 | 85 | 191 | 6.0 | 8.0 | 0.00 | 0.00 | 0.00 | 67 | |
| 20260830153408 | 85 | 196 | 1.0 | 9.0 | 0.00 | 0.00 | 0.00 | 67 | |
| 20260830152907 | 84 | 201 | 3.0 | 6.0 | 0.00 | 0.00 | 0.00 | 67 | |
| 20260830152402 | 84 | 187 | 6.0 | 13.0 | 0.00 | 0.00 | 0.00 | 68 | |
| 20260830151856 | 84 | 230 | 9.0 | 11.0 | 0.00 | 0.00 | 0.00 | 69 | |
| 20260830151355 | 84 | 109 | 4.0 | 9.0 | 0.00 | 0.00 | 0.00 | 70 | |
| 20260830150850 | 82 | 194 | 4.0 | 6.0 | 0.00 | 0.00 | 0.00 | 73 | |
| 20260830150350 | 82 | 205 | 4.0 | 11.0 | 0.00 | 0.00 | 0.00 | 75 | |
| 20260830145845 | 81 | 223 | 8.0 | 9.0 | 0.00 | 0.00 | 0.00 | 75 | |
| 20260830145339 | 80 | 223 | 8.0 | 10.0 | 0.00 | 0.00 | 0.00 | 77 | |
| 20260830144835 | 80 | 217 | 4.0 | 11.0 | 0.00 | 0.00 | 0.00 | 79 | |
| 20260830144331 | 81 | 203 | 7.0 | 9.0 | 0.00 | 0.00 | 0.00 | 78 | |
| 20260830143826 | 81 | 231 | 5.0 | 9.0 | 0.00 | 0.00 | 0.00 | 78 | |
| 20260830143326 | 80 | 233 | 8.0 | 10.0 | 0.00 | 0.00 | 0.00 | 79 | |
| 20260830142820 | 80 | 170 | 5.0 | 10.0 | 0.00 | 0.00 | 0.00 | 80 | |
| 20260830142315 | 79 | 237 | 2.0 | 7.0 | 0.00 | 0.00 | 0.00 | 84 | |
| 20260830141811 | 78 | 187 | 3.0 | 10.0 | 0.00 | 0.00 | 0.00 | 84 | |
| 20260830141305 | 78 | 185 | 11.0 | 15.0 | 0.00 | 0.00 | 0.00 | 84 | |
| 20260830140801 | 78 | 186 | 8.0 | 14.0 | 0.00 | 0.00 | 0.00 | 84 | |
| 20260830140255 | 79 | 190 | 9.0 | 11.0 | 0.00 | 0.00 | 0.00 | 84 | |
| 20260830135750 | 78 | 223 | 4.0 | 8.0 | 0.00 | 0.00 | 0.00 | 85 | |
| 20260830135245 | 78 | 212 | 7.0 | 10.0 | 0.00 | 0.00 | 0.00 | 86 | |
| 20260830134741 | 78 | 189 | 5.0 | 10.0 | 0.00 | 0.00 | 0.00 | 86 | |
| 20260830134235 | 77 | 182 | 6.0 | 9.0 | 0.00 | 0.00 | 0.00 | 87 | |
| 20260830133731 | 77 | 230 | 5.0 | 6.0 | 0.00 | 0.00 | 0.00 | 87 | |
| 20260830133227 | 77 | 222 | 7.0 | 9.0 | 0.00 | 0.00 | 0.00 | 88 | |
| 20260830132722 | 77 | 230 | 3.0 | 6.0 | 0.00 | 0.00 | 0.00 | 88 | |
| 20260830132218 | 77 | 217 | 6.0 | 7.0 | 0.00 | 0.00 | 0.00 | 88 | |
| 20260830131716 | 77 | 167 | 2.0 | 3.0 | 0.00 | 0.00 | 0.00 | 88 | |
| 20260830131212 | 76 | 192 | 2.0 | 3.0 | 0.00 | 0.00 | 0.00 | 89 | |
| 20260830130707 | 75 | 148 | 3.0 | 3.0 | 0.00 | 0.00 | 0.00 | 90 | |
| 20260830130206 | 75 | 174 | 2.0 | 3.0 | 0.00 | 0.00 | 0.00 | 91 | |
| 20260830125706 | 75 | 231 | 3.0 | 3.0 | 0.00 | 0.00 | 0.00 | 91 | |
| 20260830125201 | 74 | 151 | 4.0 | 6.0 | 0.00 | 0.00 | 0.00 | 91 | |
| 20260830124659 | 74 | 186 | 2.0 | 5.0 | 0.00 | 0.00 | 0.00 | 91 | |
| 20260830124154 | 74 | 132 | 2.0 | 5.0 | 0.00 | 0.00 | 0.00 | 91 | |
| 20260830123651 | 74 | 143 | 2.0 | 3.0 | 0.00 | 0.00 | 0.00 | 91 | |
| 20260830123147 | 74 | 138 | 3.0 | 3.0 | 0.00 | 0.00 | 0.00 | 91 | |
| 20260830122644 | 74 | 245 | 4.0 | 6.0 | 0.00 | 0.00 | 0.00 | 92 | |
| 20260830122139 | 74 | 183 | 1.0 | 3.0 | 0.00 | 0.00 | 0.00 | 92 | |
| 20260830121635 | 74 | 187 | 4.0 | 6.0 | 0.00 | 0.00 | 0.00 | 92 | |
| 20260830121134 | 74 | 183 | 5.0 | 7.0 | 0.00 | 0.00 | 0.00 | 92 | |
| 20260830120629 | 74 | 187 | 4.0 | 7.0 | 0.00 | 0.00 | 0.00 | 91 | |
| 20260830120126 | 74 | 179 | 5.0 | 7.0 | 0.00 | 0.00 | 0.00 | 91 | |
| 20260830115622 | 74 | 191 | 4.0 | 7.0 | 0.00 | 0.00 | 0.00 | 91 | |
| 20260830115117 | 74 | 193 | 4.0 | 6.0 | 0.00 | 0.00 | 0.00 | 91 | |
| 20260830114614 | 74 | 189 | 5.0 | 8.0 | 0.00 | 0.00 | 0.00 | 91 | |
| 20260830114113 | 74 | 206 | 5.0 | 6.0 | 0.00 | 0.00 | 0.00 | 91 | |
| 20260830113608 | 74 | 215 | 5.0 | 7.0 | 0.00 | 0.00 | 0.00 | 91 | |
| 20260830113103 | 74 | 165 | 3.0 | 6.0 | 0.00 | 0.00 | 0.00 | 91 | |
| 20260830112559 | 74 | 205 | 5.0 | 6.0 | 0.00 | 0.00 | 0.00 | 91 | |
| 20260830112055 | 74 | 206 | 4.0 | 7.0 | 0.00 | 0.00 | 0.00 | 91 | |
| 20260830111551 | 74 | 200 | 4.0 | 6.0 | 0.00 | 0.00 | 0.00 | 90 | |
| 20260830111047 | 74 | 204 | 5.0 | 7.0 | 0.00 | 0.00 | 0.00 | 90 | |
| 20260830110546 | 75 | 222 | 6.0 | 8.0 | 0.00 | 0.00 | 0.00 | 90 | |
| 20260830110042 | 75 | 224 | 6.0 | 7.0 | 0.00 | 0.00 | 0.00 | 89 | |
| 20260830105537 | 75 | 211 | 5.0 | 8.0 | 0.00 | 0.00 | 0.00 | 89 | |
| 20260830105033 | 75 | 215 | 5.0 | 8.0 | 0.00 | 0.00 | 0.00 | 89 | |
| 20260830104529 | 75 | 203 | 5.0 | 7.0 | 0.00 | 0.00 | 0.00 | 89 | |
| 20260830104025 | 75 | 183 | 4.0 | 7.0 | 0.00 | 0.00 | 0.00 | 89 | |
| 20260830103520 | 75 | 192 | 5.0 | 7.0 | 0.00 | 0.00 | 0.00 | 88 | |
| 20260830103019 | 75 | 183 | 4.0 | 7.0 | 0.00 | 0.00 | 0.00 | 88 | |
| 20260830102514 | 75 | 184 | 4.0 | 8.0 | 0.00 | 0.00 | 0.00 | 88 | |
| 20260830102010 | 75 | 210 | 5.0 | 7.0 | 0.00 | 0.00 | 0.00 | 88 | |
| 20260830101505 | 75 | 215 | 4.0 | 6.0 | 0.00 | 0.00 | 0.00 | 87 | |
| 20260830101004 | 75 | 195 | 5.0 | 6.0 | 0.00 | 0.00 | 0.00 | 87 | |
| 20260830100504 | 75 | 187 | 6.0 | 7.0 | 0.00 | 0.00 | 0.00 | 87 | |
| 20260830100003 | 75 | 193 | 5.0 | 7.0 | 0.00 | 0.00 | 0.00 | 87 | |
| 20260830095458 | 75 | 211 | 5.0 | 7.0 | 0.00 | 0.00 | 0.00 | 86 | |
| 20260830094954 | 75 | 160 | 5.0 | 8.0 | 0.00 | 0.00 | 0.00 | 86 | |
| 20260830094450 | 75 | 193 | 7.0 | 8.0 | 0.00 | 0.00 | 0.00 | 85 | |
| 20260830093945 | 75 | 192 | 4.0 | 7.0 | 0.00 | 0.00 | 0.00 | 85 | |
| 20260830093441 | 75 | 188 | 8.0 | 9.0 | 0.00 | 0.00 | 0.00 | 84 | |
| 20260830092936 | 75 | 178 | 4.0 | 9.0 | 0.00 | 0.00 | 0.00 | 84 | |
| 20260830092432 | 75 | 192 | 7.0 | 9.0 | 0.00 | 0.00 | 0.00 | 84 | |
| 20260830091929 | 75 | 160 | 4.0 | 9.0 | 0.00 | 0.00 | 0.00 | 84 | |
| 20260830091428 | 75 | 186 | 7.0 | 9.0 | 0.00 | 0.00 | 0.00 | 83 | |
| 20260830090927 | 75 | 195 | 6.0 | 7.0 | 0.00 | 0.00 | 0.00 | 83 | |
| 20260830090423 | 75 | 187 | 5.0 | 8.0 | 0.00 | 0.00 | 0.00 | 82 | |
| 20260830085918 | 76 | 188 | 5.0 | 9.0 | 0.00 | 0.00 | 0.00 | 82 | |
| 20260830085412 | 76 | 201 | 4.0 | 8.0 | 0.00 | 0.00 | 0.00 | 82 | |
| 20260830084908 | 76 | 203 | 5.0 | 9.0 | 0.00 | 0.00 | 0.00 | 82 | |
| 20260830084403 | 76 | 180 | 5.0 | 8.0 | 0.00 | 0.00 | 0.00 | 81 | |
| 20260830083859 | 76 | 191 | 3.0 | 9.0 | 0.00 | 0.00 | 0.00 | 81 | |
| 20260830083355 | 76 | 170 | 5.0 | 10.0 | 0.00 | 0.00 | 0.00 | 81 | |
| 20260830082854 | 76 | 170 | 7.0 | 9.0 | 0.00 | 0.00 | 0.00 | 80 | |
| 20260830082349 | 76 | 183 | 6.0 | 10.0 | 0.00 | 0.00 | 0.00 | 80 | |
| 20260830081844 | 76 | 202 | 4.0 | 9.0 | 0.00 | 0.00 | 0.00 | 80 | |
| 20260830081339 | 77 | 190 | 7.0 | 10.0 | 0.00 | 0.00 | 0.00 | 80 | |
| 20260830080838 | 77 | 218 | 7.0 | 10.0 | 0.00 | 0.00 | 0.00 | 79 | |
| 20260830080335 | 77 | 162 | 7.0 | 9.0 | 0.00 | 0.00 | 0.00 | 79 | |
| 20260830075833 | 77 | 206 | 7.0 | 11.0 | 0.00 | 0.00 | 0.00 | 79 | |
| 20260830075324 | 77 | 180 | 5.0 | 9.0 | 0.00 | 0.00 | 0.00 | 78 | |
| 20260830074819 | 77 | 189 | 4.0 | 9.0 | 0.00 | 0.00 | 0.00 | 78 | |
| 20260830074315 | 77 | 158 | 6.0 | 9.0 | 0.00 | 0.00 | 0.00 | 78 | |
| 20260830073811 | 77 | 184 | 6.0 | 9.0 | 0.00 | 0.00 | 0.00 | 78 | |
| 20260830073307 | 77 | 199 | 5.0 | 8.0 | 0.00 | 0.00 | 0.00 | 77 | |
| 20260830072806 | 77 | 166 | 5.0 | 9.0 | 0.00 | 0.00 | 0.00 | 77 | |
| 20260830072306 | 78 | 190 | 7.0 | 8.0 | 0.00 | 0.00 | 0.00 | 76 | |
| 20260830071801 | 78 | 187 | 7.0 | 9.0 | 0.00 | 0.00 | 0.00 | 76 | |
| 20260830071256 | 78 | 178 | 6.0 | 10.0 | 0.00 | 0.00 | 0.00 | 76 | |
| 20260830070755 | 78 | 186 | 5.0 | 9.0 | 0.00 | 0.00 | 0.00 | 75 | |
| 20260830070249 | 78 | 226 | 6.0 | 9.0 | 0.00 | 0.00 | 0.00 | 75 | |
| 20260830065748 | 78 | 172 | 6.0 | 8.0 | 0.00 | 0.00 | 0.00 | 74 | |
| 20260830065243 | 78 | 190 | 5.0 | 7.0 | 0.00 | 0.00 | 0.00 | 74 | |
| 20260830064741 | 78 | 221 | 5.0 | 8.0 | 0.00 | 0.00 | 0.00 | 74 | |
| 20260830064232 | 78 | 160 | 6.0 | 9.0 | 0.00 | 0.00 | 0.00 | 74 | |
| 20260830063731 | 79 | 180 | 5.0 | 10.0 | 0.00 | 0.00 | 0.00 | 74 | |
| 20260830063231 | 79 | 181 | 4.0 | 6.0 | 0.00 | 0.00 | 0.00 | 74 | |
| 20260830062726 | 79 | 194 | 5.0 | 8.0 | 0.00 | 0.00 | 0.00 | 74 | |
| 20260830062221 | 79 | 192 | 7.0 | 9.0 | 0.00 | 0.00 | 0.00 | 74 | |
| 20260830061720 | 79 | 196 | 5.0 | 10.0 | 0.00 | 0.00 | 0.00 | 74 | |
| 20260830061216 | 79 | 199 | 4.0 | 8.0 | 0.00 | 0.00 | 0.00 | 74 | |
| 20260830060713 | 79 | 203 | 5.0 | 8.0 | 0.00 | 0.00 | 0.00 | 74 | |
| 20260830060209 | 79 | 179 | 6.0 | 8.0 | 0.00 | 0.00 | 0.00 | 75 | |
| 20260830055703 | 80 | 178 | 5.0 | 7.0 | 0.00 | 0.00 | 0.00 | 75 | |
| 20260830055200 | 80 | 184 | 4.0 | 6.0 | 0.00 | 0.00 | 0.00 | 74 | |
| 20260830054655 | 80 | 176 | 3.0 | 8.0 | 0.00 | 0.00 | 0.00 | 74 | |
| 20260830054150 | 80 | 189 | 6.0 | 8.0 | 0.00 | 0.00 | 0.00 | 74 | |
| 20260830053646 | 80 | 183 | 4.0 | 7.0 | 0.00 | 0.00 | 0.00 | 74 | |
| 20260830053145 | 80 | 154 | 3.0 | 3.0 | 0.00 | 0.00 | 0.00 | 74 | |
| 20260830052640 | 80 | 164 | 3.0 | 7.0 | 0.00 | 0.00 | 0.00 | 73 | |
| 20260830052136 | 81 | 182 | 3.0 | 5.0 | 0.00 | 0.00 | 0.00 | 73 | |
| 20260830051630 | 81 | 179 | 4.0 | 5.0 | 0.00 | 0.00 | 0.00 | 73 | |
| 20260830051126 | 81 | 146 | 5.0 | 6.0 | 0.00 | 0.00 | 0.00 | 72 | |
| 20260830050625 | 81 | 189 | 2.0 | 5.0 | 0.00 | 0.00 | 0.00 | 72 | |
| 20260830050120 | 81 | 168 | 3.0 | 6.0 | 0.00 | 0.00 | 0.00 | 71 | |
| 20260830045618 | 82 | 187 | 3.0 | 7.0 | 0.00 | 0.00 | 0.00 | 71 | |
| 20260830045114 | 82 | 195 | 5.0 | 8.0 | 0.00 | 0.00 | 0.00 | 71 | |
| 20260830044613 | 82 | 146 | 3.0 | 7.0 | 0.00 | 0.00 | 0.00 | 70 | |
| 20260830044108 | 82 | 161 | 4.0 | 8.0 | 0.00 | 0.00 | 0.00 | 70 | |
| 20260830043604 | 82 | 182 | 8.0 | 9.0 | 0.00 | 0.00 | 0.00 | 69 | |
| 20260830043102 | 83 | 240 | 3.0 | 7.0 | 0.00 | 0.00 | 0.00 | 69 | |
| 20260830042601 | 83 | 127 | 2.0 | 13.0 | 0.00 | 0.00 | 0.00 | 68 | |
| 20260830042055 | 83 | 146 | 4.0 | 7.0 | 0.00 | 0.00 | 0.00 | 68 | |
| 20260830041554 | 84 | 151 | 8.0 | 10.0 | 0.00 | 0.00 | 0.00 | 67 | |
| 20260830041054 | 84 | 138 | 4.0 | 10.0 | 0.00 | 0.00 | 0.00 | 67 | |
| 20260830040549 | 84 | 175 | 4.0 | 11.0 | 0.00 | 0.00 | 0.00 | 66 | |
| 20260830040045 | 84 | 138 | 9.0 | 10.0 | 0.00 | 0.00 | 0.00 | 66 | |
| 20260830035542 | 85 | 187 | 2.0 | 8.0 | 0.00 | 0.00 | 0.00 | 65 | |
| 20260830035039 | 85 | 184 | 8.0 | 10.0 | 0.00 | 0.00 | 0.00 | 64 | |
| 20260830034534 | 85 | 153 | 8.0 | 16.0 | 0.00 | 0.00 | 0.00 | 64 |